Hourly Data Report for April 28, 2021

NANAIMO A
BRITISH COLUMBIA
Current Station Operator: NAVCAN

49°03'16.000" N
123°52'12.000" W
28.00 m
1025365
YCD

Download Data

Hourly Data (April 2021)
Hourly Data Report for April 28, 2021
TIME
LST
Temp Definition
°C
Dew Point Definition
°C
Rel Hum Definition
%
Precip. Amount Definition
mm

Wind Dir Definition
10's deg

Wind Spd Definition
km/h
Visibility Definition
km
Stn Press Definition
kPa
Hmdx Definition


Wind Chill Definition


Weather Definition


00:00 10.4 6.4 76 LegendMM 27 10 LegendMM 102.08     LegendNANA
01:00 9.7 7.4 86 LegendMM 22 5 LegendMM 102.09     LegendNANA
02:00 9.4 7.9 90 LegendMM 20 2 LegendMM 102.05     LegendNANA
03:00 9.6 7.2 84 LegendMM 24 3 LegendMM 102.11     LegendNANA
04:00 9.0 8.2 95 LegendMM 23 2 LegendMM 102.13     LegendNANA
05:00 8.6 8.0 96 LegendMM   0 LegendMM 102.13     LegendNANA
06:00 9.2 7.7 90 LegendMM 26 6 LegendMM 102.17     LegendNANA
07:00 9.8 7.2 84 LegendMM 29 1 LegendMM 102.21     LegendNANA
08:00 10.9 7.8 81 LegendMM 2 3 LegendMM 102.20     LegendNANA
09:00 11.2 7.2 76 LegendMM 32 3 LegendMM 102.26     LegendNANA
10:00 11.6 7.5 76 LegendMM 8 4 LegendMM 102.28     LegendNANA
11:00 12.7 8.0 73 LegendMM 10 10 LegendMM 102.29     LegendNANA
12:00 13.4 8.2 71 LegendMM 7 10 LegendMM 102.28     LegendNANA
13:00 12.9 8.6 75 LegendMM 6 13 LegendMM 102.32     LegendNANA
14:00 12.4 8.0 75 LegendMM 7 10 LegendMM 102.36     LegendNANA
15:00 12.5 7.4 71 LegendMM 9 10 LegendMM 102.35     LegendNANA
16:00 11.9 7.8 76 LegendMM 11 6 LegendMM 102.34     LegendNANA
17:00 11.4 8.7 84 LegendMM 10 4 LegendMM 102.33     LegendNANA
18:00 10.8 8.8 87 LegendMM 5 7 LegendMM 102.32     LegendNANA
19:00 10.3 8.7 90 LegendMM 6 8 LegendMM 102.34     LegendNANA
20:00 9.9 8.9 94 LegendMM 32 4 LegendMM 102.37     LegendNANA
21:00 9.6 9.3 98 LegendMM 25 3 LegendMM 102.38     LegendNANA
22:00 9.3 9.2 99 LegendMM 36 3 LegendMM 102.35     LegendNANA
23:00 9.3 9.2 100 LegendMM 0 1 LegendMM 102.34     LegendNANA

Notes on Data Quality.

Legend

  • E = Estimated
  • M = Missing
  • NA = Not Available*
  • [empty] = Indicates an unobserved value
Date modified: